Regional Weather Roundup
Issued by NWS Grand Forks, ND

Home | Current Version | Previous Version | Graphics & Text | Print | Product List | Glossary On
Versions: 1 2 3 4 5 6 7 8 9 10 11 12 13 14 15 16 17 18 19 20 21 22 23 24 25 26 27 28 29 30 31 32 33 34 35 36 37 38 39 40 41 42 43 44 45 46 47 48 49 50
000
ASUS43 KFGF 121631
RWRFGF
PRAIRIE TO PINES  WEATHER ROUNDUP
NATIONAL WEATHER SERVICE EASTERN NORTH DAKOTA/GRAND FORKS ND
1000 AM CST FRI FEB 12 2016

 **SATELLITE DATA USED TO AUGMENT SKY COVER AT AUTOMATED STATIONS**
 *****  WEATHER ACROSS EASTERN NORTH DAKOTA  *****

CITY           SKY/WX    TMP DP  RH WIND       PRES   REMARKS
GRAND FORKS    MOSUNNY   -4 -14  62 N20       30.64R WCI -27
GRAND FRKS AFB MOSUNNY   -4 -15  59 N16G23    30.63R WCI -25
DEVILS LAKE    CLOUDY    -9 -14  78 N14       30.61R WCI -30
FARGO          PTSUNNY    0  -9  65 N18       30.62R WCI -21
WAHPETON ARPT  CLOUDY     1  -6  71 N21G26    30.59R WCI -20
$$

 ***** WEATHER ACROSS CENTRAL AND WESTERN NORTH DAKOTA  *****

CITY           SKY/WX    TMP DP  RH WIND       PRES   REMARKS
BISMARCK       MOSUNNY    7  -2  66 N9        30.60R WCI  -7
MINOT          CLOUDY     2 -10  57 N7        30.60R WCI -11
JAMESTOWN      SUNNY     -2 -10  69 N14       30.58R WCI -21
MINOT AFB      CLOUDY     0  -9  65 CALM      30.60R
GARRISON         N/A      1  -7  68 N6        30.57R WCI -10
WILLISTON      SUNNY      4  -4  69 NE6       30.56S WCI  -7
DICKINSON      CLOUDY     6  -4  63 E10       30.46R WCI  -9
HETTINGER      CLOUDY    12   7  80 NE14      30.46F WCI  -3
$$

 *****  OTHER AIRPORT OBSERVATIONS IN OUR AREA  *****

CITY           SKY/WX    TMP DP  RH WIND       PRES   REMARKS
WALHALLA       FAIR      -6 -13  71 N14       30.66R WCI -26
GRAFTON AIRPOR FAIR      -6 -15  65 N18       30.67R WCI -29
VALLEY CITY AR FLURRIES  -4 -11  71 N14       30.61R WCI -24
CANDO          FAIR      -8 -13  77 N12       30.64R WCI -27
CAVALIER APRT  FAIR      -8 -15  71 N17       30.66R WCI -31
GWINNER        FAIR       1  -6  71 N17       30.59R WCI -19
SHEYENNE NWR     N/A      0 -11  60 N10       29.95S WCI -16
ROLLA          FAIR      -9 -13  84 NW9       30.58R WCI -27
 ***** THE ABOVE OBSERVATIONS ARE NON NWS ARE NOT QUALITY
       CONTROLLED AND MAY MIS-REPORT RAIN FOR SNOW...
$$

  *****  WEATHER ACROSS NORTHERN MINNESOTA  *****

CITY           SKY/WX    TMP DP  RH WIND       PRES   REMARKS
FLAG ISLAND    MOSUNNY  -13 -20  70 NW20      30.49R WCI -39
WARROAD        SUNNY     -9 -18  64 NW9       30.53R WCI -27
ROSEAU         SUNNY     -9 -17  70 NW10      30.56R WCI -28
HALLOCK        SUNNY     -9 -18  64 N22       30.63R WCI -35
THF RVR FALLS  SUNNY     -8 -20  54 NW15      30.57R WCI -29
BAUDETTE       MOSUNNY  -12 -21  64 NW18G25   30.47R WCI -37
WASKISH        SUNNY     -8 -18  59 NW12G18   30.48R WCI -27
CROOKSTON      MOSUNNY   -6 -11  77 N20       30.62R WCI -29
STEPHEN NDAWN    N/A     -9 -17  70 N20         N/A  WCI -34
GREENBUSH NDAW   N/A    -11 -17  77 NW16        N/A  WCI -34
$$
  *****  WEATHER ACROSS CENTRAL AND WEST MINNESOTA  *****

CITY           SKY/WX    TMP DP  RH WIND       PRES   REMARKS
FOSSTON        SUNNY     -6 -17  59 N15       30.53R WCI -27
BEMIDJI        SUNNY     -7 -17  62 NW16G23   30.46R WCI -29
PARK RAPIDS    SUNNY     -3 -15  56 N13       30.44R WCI -22
ELBOW LAKE     FAIR      -1  -8  69 NW18G26   30.52R WCI -22
WADENA         SUNNY     -2 -11  65 N16G22    30.46R WCI -23
DETROIT LAKES  SUNNY     -4  -9  77 N15G26    30.51R WCI -25
MOORHEAD       PTSUNNY   -2  -9  71 N22       30.61R WCI -26
FERGUS FALLS   CLOUDY    -2  -9  71 N21G26    30.58R WCI -25
MORRIS MN      MOSUNNY    1  -6  71 N26       30.50R WCI -23
STAPLES        SUNNY     -2 -11  65 NW12G20   30.45R WCI -20
$$
  *****  WEATHER ELSEWHERE ACROSS MINNESOTA  *****

CITY           SKY/WX    TMP DP  RH WIND       PRES   REMARKS
DULUTH         MOSUNNY   -4 -15  59 NW22G30   30.28R WCI -28
INTRNTL FALLS  SUNNY    -10 -20  61 NW9       30.42R WCI -27
ELY            MOSUNNY   -8 -18  59 NW10G21   30.30R WCI -26
CLOQUET        SUNNY     -2 -17  50 NW22G29   30.33R WCI -26
WHEATON        PTSUNNY    3  -2  78 NW20      30.59R WCI -18
BRAINERD       SUNNY     -2 -12  62 N20G25    30.42R WCI -24
HIBBING        HVY SNOW  -7 -14  71 NW17      30.36R VSB 1/4 WCI -30
ALEXANDRIA     SUNNY      0 -10  63 N18       30.45R WCI -21
SAINT CLOUD    SUNNY      3  -8  60 N20G30    30.41R WCI -18
MINNEAPOLIS    SUNNY      8  -4  58 NW22G31   30.38R WCI -12
$$

  *****  WEATHER ACROSS SOUTH DAKOTA  *****

CITY           SKY/WX    TMP DP  RH WIND       PRES   REMARKS
SIOUX FALLS    MOSUNNY   12   3  67 N17G23    30.50R HAZE    WCI  -5
BROOKINGS      SUNNY      8  -1  66 N17       30.48R WCI -10
WATERTOWN      CLOUDY     4  -6  63 N20       30.48R WCI -17
HURON          MOSUNNY   13   4  67 N15       30.56R WCI  -3
SISSETON         N/A      1  -7  68 N20       30.56R WCI -20
ABERDEEN       SUNNY      7  -3  64 N13       30.59R WCI  -9
MITCHELL       PTSUNNY   14   7  73 N17       30.56R WCI  -3
PIERRE         CLOUDY    21  14  74 NE9       30.51R WCI  11
MOBRIDGE       MOSUNNY   16   8  71 N14       30.51R WCI   2
RAPID CITY     CLOUDY    28  26  92 NE7       30.40R FOG     WCI  21
$$

  *****  SOME WEATHER IN NEARBY STATES *****

CITY           SKY/WX    TMP DP  RH WIND       PRES   REMARKS
GLASGOW MT     CLOUDY    15   9  76 E17       30.44S WCI  -1
GREAT FALLS MT CLOUDY    33  31  92 E8        30.19F
CHEYENNE WY    CLOUDY    39  27  62 S3        30.31R
SCOTTSBLUFF NE CLOUDY    36  30  79 NE7       30.35R
OMAHA NE       CLOUDY    23  16  74 N18       30.46R WCI   9
DES MOINES IA  MOSUNNY   20  11  68 N15       30.40R WCI   6
DAVENPORT IA   MOSUNNY   21  11  65 NW20      30.26S WCI   6
CHICAGO IL     PTSUNNY   21  11  65 W17       30.15R WCI   7
EAU CLAIRE WI  SUNNY      9  -4  55 NW17G25   30.27R WCI  -9
LA CROSSE WI   PTSUNNY   14   3  61 NW18      30.28R WCI  -3
$$

  *****  SOME NATIONAL WEATHER *****

CITY           SKY/WX    TMP DP  RH WIND       PRES   REMARKS
LA GUARDIA NY  PTSUNNY   23  -1  35 VRB3      30.22F
RALEIGH NC     CLOUDY    29   8  41 E3        30.22F
ATLANTA GA     PTSUNNY   46  27  47 NE6       30.12F
NEW ORLEANS LA MOSUNNY   70  58  65 W14       30.28R
OKLAHOMA CITY  MOSUNNY   48  34  58 NW8       30.34R
ALBUQUERQUE NM SUNNY     42  20  41 NW6       30.42R
SALT LAKE CITY FOG       29  27  92 N3        30.44S VSB 1
LOS ANGELES CA PTSUNNY   62  39  42 CALM      30.11R
BOISE ID       PTSUNNY   31  28  89 CALM      30.35R
SEATTLE WA     MOCLDY    52  50  93 SE8       30.06F
$$

*** WEATHER ACROSS MANITOBA...SASKATCHEWAN AND ONTARIO ***
                ***ONTARIO***

CITY           SKY/WX    TMP DP  RH WIND       PRES   REMARKS
GERALDTON      MOSUNNY  -20 -31  57 NW13      30.11S WCI -43
THUNDER BAY    MOSUNNY   -9 -24  49 NW12G18   30.29R WCI -29
SIOUX LOOKOUT  SUNNY    -17 -27  58 NW12      30.32R WCI -38
TORONTO        CLOUDY    19   9  63 SW17G24   29.93F WCI   4
BIG TROUT LK   LGT SNOW -24 -33  62 NW15G23   30.25R WCI -50
PICKLE LAKE    CRYSTALS -20 -31  57 W9G21     30.20R WCI -40
DRYDEN         SUNNY    -17 -26  63 W13       30.35R WCI -39
KENORA         SUNNY    -17 -24  70 NW13      30.43R WCI -39
$$
                *** MANITOBA***

CITY           SKY/WX    TMP DP  RH WIND       PRES   REMARKS
BRANDON        MOSUNNY  -13 -18  77 NW9       30.63R WCI -31
DAUPHIN        SUNNY    -13 -18  77 W5        30.69R WCI -25
ISLAND LAKE    SUNNY    -24 -31  69 W10       30.47R WCI -46
PILOT MOUND      N/A    -11 -17  77 NW8         N/A  WCI -28
THE PAS        MOSUNNY  -20 -29  63 NW7       30.70F WCI -37
THOMPSON       SUNNY    -22 -29  69 NW8       30.56S WCI -41
WINNIPEG       SUNNY    -13 -22  64 N12       30.65R WCI -33
LYNN LAKE      SUNNY    -27 -33  75 NW9       30.60S WCI -49
CHURCHILL      CRYSTALS -20 -27  69 NW24G33   30.41S VSB 1   WCI -51
GILLAM         SUNNY    -22 -31  63 W13       30.45R WCI -46
$$
                ***SASKATCHEWAN***

CITY           SKY/WX    TMP DP  RH WIND       PRES   REMARKS
ESTEVAN        PTSUNNY    5  -4  66 CALM      30.57
KINDERSLEY     CLOUDY     5   0  78 E16       30.40F WCI -14
LLOYDMINSTER   CLOUDY     1  -2  85 SE14      30.40F WCI -17
PRINCE ALBERT  PTSUNNY  -22 -27  76 E5        30.65F WCI -36
REGINA         MOSUNNY    1  -4  78 E8        30.56F WCI -12
YORKTON        SUNNY    -17 -20  83 W6        30.62R WCI -31
N. BATTLEFORD  LGT SNOW  -4  -9  77 SE14      30.54R WCI -24
LA RONGE       PTCLDY   -26 -33  68 CALM      30.66F
SASKATOON      PTSUNNY   -2  -8  78 SE13      30.59F WCI -21
SWIFT CURRENT  CLOUDY     7   5  92 SE14G21   30.37F WCI -10
$$
NOTE: THESE ARE AUTOMATED STATIONS WITH LIMITED QUALITY CONTROL
      "FAIR" INDICATES FEW OR NO CLOUDS BELOW 12,000 FEET WITH NO
      SIGNIFICANT WEATHER AND/OR OBSTRUCTIONS TO VISIBILITY.
      SKY/WX - SKY CONDITION AND SIGNIFICANT WEATHER.
      TMP - AIR TEMPERATURE.    DP   - DEWPOINT TEMPERATURE.
      RH  - RELATIVE HUMIDITY.  PRES - PRESSURE.
      HX  - HEAT INDEX.         WCI  - WIND CHILL INDEX.
$



USA.gov is the U.S. government's official web portal to all federal, state and local government web resources and services.